Location: Allentsteig
(48.6833°N, 15.3167°E)
Time: 00:39:42
(UTC+00:00)

Cosmos 2298 Rocket - Pass Details

Date: 23 January 2021
Orbit: 775 x 784 km, 74.0° (Epoch: 03 March)

Event Time Altitude Azimuth Distance (km) Brightness Sun altitude
Exits shadow 05:29:30 - 329° (NNW) 2,688 6.4 -11.4°
Reaches altitude 10° 05:30:24 10° 326° (NNW) 2,352 6.1 -11.3°
Maximum altitude 05:35:28 45° 255° (WSW) 1,059 4.4 -10.5°
Drops below altitude 10° 05:40:30 10° 184° (S) 2,336 6.7 -9.7°
Sets 05:42:58 0° 178° (S) 3,259 7.5 -9.3°
